OBJECT C, 57582

Orbit data source: Space-Track

You're viewing an Uncataloged Satellite

Recently launched and/or uncataloged satellites may have evolving metadata. Metadata may include but not limited to: Owner, Maufacturer, Bus, Motor, and Mission.

OBJECT C, 57582 is a Chinese satellite in SSO that was launched on Thu, 10 Aug 2023 UTC via a GUSHENXING 1 launch vehicle from the Jiuquan Satellite Launch Center, China (JSC). Unknown objects in Earth's orbit typically refer to objects detected orbiting the Earth but have not yet been identified or cataloged. These objects could be anything from previously untracked satellites, spent rocket stages, debris from satellite collisions, or even natural meteoroids temporarily captured by Earth's gravity.

Loading next visibility...
Identifier
57582, 2023-117C
Orbit
SSO
Country
Flag of CNCN / PRC
Related business
None
Manufacturer
Unknown
Mission
Operational Commercial Imaging
Bus & Motor
Unknown
Mass
Unknown
Launch date (UTC)
2023-08-10 (3 years ago)
Launch vehicle
GUSHENXING 1
Launch site
Jiuquan Satellite Launch Center, China (JSC)
Object type
Unknown
Shape & HBR
Box + 2 Pan, 0.5 m
Radar Cross Section
0.195 m², Medium (>0.1 m² and < 1m²)

Expand to show TLE details & history
Last TLE update: 22 hours ago

TLE from 22 hours ago
0 OBJECT C
1 57582U 23117C   26172.51337125  .00020148  00000-0  49300-3 0  9990
2 57582  97.4063 253.5914 0006454 207.8212 152.2690 15.40797772159232
Epoch: 2026-06-21T12:19Z
TLE epoch observation values (Epoch: 2026-06-21T12:19:15.275Z)
Latitude
-0°
Longitude
159.06519°
Altitude
450.771 km
Speed
7.64 km/s
True Right ascension
16h 54m 21s
True Declination
0° 00' 00"
Sunlit
Object was in full shadow at epoch
Visualization orbit readout
Latitude
Unknown
Longitude
Unknown
Altitude
Unknown
Speed
Unknown
Apparent Right ascension
Unknown
Apparent Declination
Unknown
Sunlit
N/A
Visualization observer readout
Local Sidereal Time
21:27:26
Azimuth
Unknown
Elevation
Unknown
Doppler factor
Unknown
Orbital elements
Apogee altitude
445.093 km
Perigee altitude
436.291 km
Semi-major axis
6,818.829 km
Eccentricity
0.00065
Inclination
97.4063°
RAAN
253.5914°
Arg. of periapsis
207.8212°
True anomaly
152.30339°
Mean anomaly
152.269°
Eccentric anomaly
152.2862°
Mean motion
3.85459 °/min
Orbital period
93.4 mins
BSTAR
0.000493
Loading maneuver chart data...
Computing Atmospheric mass density...
Loading historical data...
Loading historical data...
Loading historical data...
Loading historical data...
Loading historical data...
Loading historical data...
Loading historical data...

Documentation

Showing up to 5 results
|